Temp
70 69 68 66 67 67 67 68 68 67 65 64 63 62 61 60 58 57 57 59 61 63 65 64 66 66 67 66 67 67 67 68 70 70 70 69 69 69 69 69 69 69 69 69 69 69 69 70 70 71 71 72 72 73 73 73 73 74 74 74 74 75 75 75 75 75 75 75 75 75 76 77 78 78
69 69 68 68 68 68 67 68 67 66 65 64 63 63 63 62 60 59 57 58 62 63 63 66 65 65 66 67 67 67 67 68 69 69 69 69 69 69 68 68 69 69 69 68 68 68 68 69 69 70 70 71 71 72 72 72 72 73 73 73 73 74 74 73 74 74 74 74 74 74 75 76 76 76
69 68 68 68 67 68 67 67 67 67 66 65 64 64 63 62 62 61 59 56 61 63 63 65 67 66 66 67 66 67 67 68 69 69 69 69 69 69 69 68 68 68 68 68 68 68 68 68 68 69 69 70 70 71 71 71 72 72 72 73 73 73 73 73 73 74 74 74 74 74 74 75 75 75
69 68 68 68 67 67 67 67 66 66 65 66 64 64 63 62 62 61 60 57 59 64 65 66 66 67 66 66 65 65 67 68 69 68 68 68 69 69 69 69 68 68 68 68 68 67 67 67 68 68 69 69 70 70 71 71 71 71 71 72 72 72 72 71 72 73 73 74 74 74 74 74 75 75
68 68 67 68 68 67 66 66 66 66 65 65 64 64 63 63 62 61 60 58 59 63 65 65 65 67 66 65 66 65 66 67 68 68 68 68 68 68 68 69 69 68 67 67 67 67 67 67 67 68 68 69 69 70 70 70 70 70 70 71 70 71 71 71 72 72 73 73 73 74 74 74 74 76
68 67 67 67 68 67 67 66 65 65 65 65 64 64 63 63 63 62 61 59 59 59 65 64 65 64 66 63 67 65 65 66 67 67 67 68 68 68 69 69 69 68 68 67 67 67 67 66 67 67 68 68 69 69 69 69 68 69 70 70 69 69 70 70 70 71 71 72 73 73 73 73 74 75
67 66 67 67 68 66 65 65 66 66 65 65 64 64 64 62 63 63 62 60 59 60 62 65 63 64 65 64 65 66 66 66 67 65 66 67 68 68 68 68 69 68 67 67 67 66 66 66 66 66 66 67 67 67 67 67 68 68 68 68 68 68 69 69 69 69 71 71 72 73 73 73 73 74
67 67 66 67 67 66 65 65 65 65 65 64 64 64 64 63 62 63 62 61 60 61 59 63 63 64 63 64 66 66 66 66 66 66 66 67 67 67 68 68 68 68 67 66 66 66 66 66 66 65 65 65 66 66 66 66 66 66 66 66 66 66 67 66 66 68 68 69 70 71 72 72 73 73
67 66 66 67 67 66 65 65 65 65 64 64 64 63 64 63 63 63 63 61 61 59 59 61 64 64 63 64 64 65 64 65 66 66 65 66 66 66 67 68 68 68 67 67 67 66 66 66 66 66 65 65 65 65 65 65 64 65 64 64 64 65 65 65 65 66 67 67 67 68 70 71 72 72
67 66 66 67 67 66 65 66 66 65 64 64 63 63 63 63 63 62 62 62 61 60 60 60 61 63 62 63 63 65 65 64 63 64 65 65 65 65 65 67 68 69 68 68 68 68 67 67 66 66 66 65 65 65 65 65 64 63 62 61 62 64 63 63 64 65 65 65 65 66 68 70 71 71
66 66 66 66 66 66 66 66 66 65 64 64 64 64 64 64 63 62 62 62 61 61 60 60 61 61 63 63 61 65 66 64 63 61 61 61 64 65 64 64 67 68 68 68 67 67 68 67 68 66 65 65 65 64 64 64 63 62 61 61 60 60 61 62 62 62 63 64 64 65 65 65 68 70
67 66 67 67 67 67 67 66 66 65 65 65 64 65 64 64 63 62 62 61 60 60 60 59 60 61 61 62 64 64 63 61 62 63 61 59 61 62 64 64 64 66 66 66 67 67 67 67 67 66 66 65 65 64 64 65 65 64 62 61 62 62 60 60 61 61 61 62 63 63 64 65 65 67
66 66 66 67 67 67 66 65 64 64 64 66 64 65 65 64 63 62 62 61 60 60 60 59 61 60 60 61 61 61 61 60 60 63 63 61 62 63 62 64 66 66 65 65 66 66 67 67 67 68 68 69 69 69 68 69 67 65 63 62 62 63 61 60 60 61 61 61 61 61 63 64 64 65
66 66 66 67 66 65 65 64 63 62 61 61 64 66 66 64 63 62 62 61 61 60 59 59 60 59 59 61 62 61 62 63 63 62 61 60 61 61 61 62 65 67 66 64 63 65 68 67 67 67 67 69 70 71 72 72 72 68 64 64 63 63 62 60 60 59 60 60 60 60 60 62 63 63
67 66 66 66 66 66 65 65 63 62 61 61 60 60 61 62 64 63 62 62 62 60 60 60 60 59 59 61 62 62 62 63 62 62 62 61 60 58 56 55 62 67 66 63 62 62 66 66 64 65 67 68 69 70 70 68 67 65 65 65 64 63 63 62 61 60 59 60 60 60 59 60 61 62
66 66 65 65 65 65 65 65 65 65 63 61 61 60 60 60 59 60 63 63 61 62 60 59 60 60 60 61 62 63 63 63 63 63 62 60 59 58 57 57 57 63 66 62 60 60 64 66 64 63 65 67 69 69 68 67 66 65 65 64 64 63 63 63 63 62 60 61 61 62 61 61 61 62
64 64 64 64 65 65 63 65 66 65 65 62 60 59 59 59 59 59 59 60 63 64 62 59 58 60 61 60 61 63 63 64 61 62 61 61 60 60 58 58 60 63 65 61 58 57 62 64 63 63 65 67 68 69 67 66 66 65 64 64 64 64 63 63 63 63 62 61 61 60 61 62 62 61
64 63 63 63 63 65 64 64 64 64 64 63 64 64 64 64 63 59 58 57 57 59 60 59 59 62 63 61 62 64 64 61 60 60 57 59 58 58 58 61 61 63 65 60 58 56 60 64 63 62 65 67 67 68 68 66 66 65 65 64 63 63 63 63 62 62 62 62 61 60 60 59 59 60
64 63 63 63 63 63 64 64 63 63 63 63 63 62 63 64 64 64 65 65 64 63 63 62 62 62 63 63 63 63 63 62 62 61 59 59 59 60 61 61 61 62 64 63 59 53 59 63 61 62 64 67 67 69 67 66 65 65 64 64 64 63 63 63 63 62 62 62 61 60 59 58 58 58
63 62 62 63 63 63 62 61 58 59 59 60 60 59 60 61 62 63 62 60 61 63 64 64 64 64 64 59 61 62 62 61 60 59 60 60 59 58 56 55 60 60 64 65 60 57 58 63 60 62 66 67 65 67 69 67 65 65 65 64 64 62 62 62 63 62 62 62 61 61 59 57 56 57
62 62 61 61 62 61 62 58 55 56 56 59 59 58 59 59 60 61 63 61 58 57 55 54 55 55 55 56 55 55 55 58 58 58 56 56 59 56 54 56 57 59 63 64 63 60 57 61 61 60 63 64 64 66 67 70 67 65 65 64 63 62 61 61 62 62 62 62 62 61 60 58 56 57
60 60 62 63 62 59 59 54 53 54 57 58 58 58 57 57 58 60 63 63 62 58 57 57 57 57 57 56 56 56 55 55 56 58 54 57 57 54 55 53 56 59 61 62 65 58 58 62 63 60 62 63 63 64 66 67 68 67 65 63 62 61 61 60 60 62 62 62 61 60 59 58 57 62
60 60 60 60 57 57 56 51 52 52 54 57 57 57 56 57 57 59 60 59 59 59 60 61 62 61 60 62 62 62 58 57 59 60 59 58 56 54 54 54 54 53 56 62 66 57 58 60 62 60 58 57 62 65 65 66 67 69 72 72 69 62 61 59 59 58 60 61 61 60 58 57 58 66
61 60 59 59 56 53 52 50 49 49 50 57 57 57 57 57 56 59 56 57 57 57 58 59 60 59 60 61 61 62 62 62 62 60 59 58 56 54 53 54 54 52 55 62 64 58 60 62 60 63 60 57 57 64 66 66 67 69 72 73 73 66 62 61 60 58 58 58 59 59 58 56 58 67
60 59 58 58 55 51 51 49 47 47 48 51 56 57 57 57 56 53 54 56 57 57 58 58 57 58 58 59 60 60 59 60 60 59 59 58 57 55 54 53 53 54 58 62 62 59 57 61 60 61 60 60 60 61 65 68 70 70 71 72 73 73 70 68 66 67 59 57 56 56 56 56 56 64
58 58 57 59 54 49 49 48 47 46 49 50 56 55 48 47 49 53 56 57 57 56 56 55 55 56 56 56 57 57 57 58 58 57 57 58 58 58 57 55 54 53 54 60 60 59 59 58 61 59 60 59 61 62 62 65 70 71 71 71 72 73 71 70 69 69 67 66 64 59 61 55 56 58
58 58 58 57 54 49 46 46 47 49 49 53 53 46 46 49 51 54 56 56 55 54 54 54 53 54 54 54 54 55 55 56 56 56 56 58 58 58 59 58 58 57 57 59 62 62 60 59 62 61 60 62 61 62 63 64 67 70 68 67 69 71 70 70 69 69 70 67 67 58 56 55 55 57
56 56 56 56 49 45 43 45 47 48 50 52 45 45 48 51 53 56 55 54 53 53 52 52 52 52 54 54 53 53 55 54 55 56 57 57 58 58 57 57 59 59 60 60 61 62 62 60 62 63 62 61 61 61 63 67 68 68 67 68 68 69 68 68 68 68 67 67 65 62 61 59 58 58
57 53 48 46 45 46 44 46 48 51 50 50 50 49 50 54 54 54 53 52 52 51 50 51 51 52 53 53 53 54 55 56 56 56 57 58 58 58 58 57 58 59 61 63 63 62 62 61 61 62 62 62 61 63 63 65 67 68 68 66 65 66 66 66 67 66 66 65 64 62 61 62 59 60
50 49 49 48 48 49 51 54 56 56 55 52 52 52 53 54 53 53 52 52 51 50 50 50 50 51 52 53 54 55 55 54 53 54 54 54 54 55 54 54 56 59 60 61 62 62 63 63 62 61 61 61 62 61 63 64 65 67 68 67 70 68 66 65 65 66 64 63 63 63 64 64 62 61
54 55 55 55 53 53 54 55 54 54 54 54 53 54 53 53 52 53 52 52 51 50 49 50 50 51 52 54 53 52 52 52 53 55 54 53 53 54 54 53 54 56 58 60 60 62 62 62 62 62 60 60 61 62 63 65 65 66 67 67 68 65 65 65 64 63 63 64 63 62 63 62 62 62
53 56 52 51 56 56 56 55 54 54 53 54 53 53 52 52 52 53 53 53 51 50 50 50 50 51 51 51 51 52 51 51 53 54 53 53 52 53 53 52 53 55 56 58 59 62 63 62 61 63 63 62 60 63 65 66 65 65 66 67 68 69 67 65 64 63 63 63 61 61 62 61 61 62
53 55 55 55 55 55 54 54 53 53 52 53 52 52 52 51 51 51 51 49 48 48 49 49 49 49 50 50 51 51 50 51 51 53 52 52 51 52 52 52 52 52 53 54 57 59 60 60 62 63 63 60 60 60 62 62 65 66 66 66 66 66 65 65 65 64 63 62 62 62 61 62 63 63
54 54 54 54 54 53 53 53 52 53 52 52 51 51 51 51 50 51 50 49 48 49 49 49 48 48 49 48 49 49 49 50 51 52 51 51 51 50 50 50 51 53 54 54 55 56 58 59 60 61 60 59 58 56 57 59 63 65 65 66 66 65 65 66 66 65 63 63 62 61 61 62 63 64
54 53 53 53 53 52 53 53 52 52 52 52 51 51 50 50 50 50 49 48 48 48 48 48 48 48 48 48 48 48 49 49 50 51 51 51 51 50 50 50 51 52 52 53 54 56 57 57 57 58 59 59 59 57 58 56 54 58 63 64 65 65 65 66 66 64 65 65 65 63 63 63 63 64
53 54 53 52 52 52 52 52 53 52 52 51 51 50 50 50 50 49 48 47 47 47 47 47 47 48 47 47 48 48 49 49 49 49 49 50 49 50 50 50 51 52 52 53 54 56 57 57 57 56 57 59 59 57 54 56 55 51 57 62 62 64 63 64 66 65 65 65 65 65 63 63 64 65
52 52 52 52 52 52 52 51 52 52 51 51 51 50 49 49 49 48 47 47 47 48 47 47 47 47 47 47 47 48 48 48 48 48 49 49 49 49 49 50 51 51 51 52 54 56 57 56 56 56 56 58 57 53 54 57 54 53 51 54 59 62 63 64 65 64 65 65 65 65 65 66 66 67
52 51 52 52 52 52 52 52 52 51 50 50 50 50 49 48 47 46 47 47 47 47 47 47 47 47 47 47 47 47 48 49 49 49 48 48 48 48 48 48 49 50 51 52 55 56 57 56 56 56 55 53 52 51 52 54 55 54 52 52 55 58 61 64 64 64 64 66 65 67 68 67 67 69
52 52 52 52 52 52 51 51 51 50 49 49 49 48 47 47 46 46 47 47 47 46 47 47 47 46 46 47 47 47 47 47 48 48 48 48 48 47 48 49 49 50 51 52 54 56 56 56 56 56 55 54 52 52 53 53 53 56 54 50 52 57 57 60 63 64 64 65 65 67 67 68 67 65
52 53 52 52 51 49 50 50 49 49 48 48 47 47 46 45 45 45 46 46 46 45 46 46 46 46 47 47 47 48 48 49 49 48 49 48 49 49 49 49 49 49 50 51 52 54 55 55 56 56 56 56 57 57 57 57 57 58 57 55 49 51 53 55 59 63 64 65 66 65 65 65 66 66
51 51 52 52 51 50 50 49 48 48 47 46 45 46 45 43 43 45 45 45 44 44 45 45 45 45 46 47 47 47 47 48 49 50 50 50 49 49 50 50 49 49 49 50 51 52 54 55 59 59 60 59 59 59 57 54 53 54 55 57 53 52 51 54 55 56 58 60 64 65 64 64 64 64
50 50 49 50 49 49 49 48 47 47 46 45 45 44 43 44 44 42 43 43 42 44 44 45 45 45 46 47 47 48 48 48 49 49 50 50 49 49 49 49 48 49 49 49 50 52 55 57 60 59 59 58 57 55 53 53 53 54 55 57 58 55 53 53 54 55 55 56 60 64 64 64 65 64
51 49 49 49 48 48 48 47 46 46 45 44 44 43 43 44 43 43 43 43 42 44 44 44 45 45 46 47 48 48 49 49 49 49 50 50 50 48 48 48 49 49 49 50 52 53 54 56 58 58 57 57 56 56 53 54 54 55 55 56 56 58 59 56 55 55 55 55 54 53 55 60 63 62
50 49 49 48 48 46 46 46 45 44 44 44 44 43 44 44 43 43 42 42 42 42 43 44 44 45 45 47 48 49 50 50 49 48 49 49 49 49 48 49 51 49 50 50 51 52 53 55 56 57 56 55 56 55 54 55 54 55 55 56 57 57 56 58 59 58 58 56 55 55 54 53 53 54
50 49 48 47 47 47 46 45 45 44 43 44 43 44 44 43 44 43 42 42 42 42 42 43 44 45 45 47 48 48 49 48 48 49 50 50 51 50 49 50 50 50 50 51 51 51 52 53 54 55 55 55 55 55 56 56 55 55 55 55 55 56 56 57 56 56 57 57 56 55 55 54 54 54
MSLP
1018.18 1018.30 1018.42 1018.46 1018.42 1018.42 1018.46 1018.42 1018.42 1018.46 1018.58 1018.66 1018.90 1019.14 1019.22 1019.46 1019.90 1019.90 1019.58 1019.18 1019.02 1018.54 1018.46 1018.58 1017.82 1017.46 1017.38 1017.30 1017.18 1017.18 1017.10 1016.94 1016.78 1016.54 1016.34 1016.14 1015.94 1015.66 1015.46 1015.30 1015.10 1014.86 1014.66 1014.46 1014.30 1014.10 1013.98 1013.86 1013.70 1013.58 1013.50 1013.38 1013.30 1013.26 1013.22 1013.22 1013.22 1013.18 1013.10 1013.10 1013.06 1013.10 1013.22 1013.30 1013.34 1013.42 1013.58 1013.78 1013.98 1014.10 1014.26 1014.42 1014.66 1014.86
1018.02 1018.10 1018.22 1018.26 1018.30 1018.22 1018.34 1018.34 1018.26 1018.30 1018.38 1018.62 1018.78 1018.86 1018.98 1019.10 1019.30 1019.34 1019.46 1018.94 1018.58 1018.46 1018.22 1018.14 1017.82 1017.34 1017.22 1017.14 1017.06 1016.94 1016.78 1016.62 1016.54 1016.38 1016.18 1015.94 1015.70 1015.50 1015.30 1015.06 1014.86 1014.66 1014.42 1014.22 1014.06 1013.86 1013.70 1013.54 1013.42 1013.26 1013.14 1013.06 1012.94 1012.86 1012.82 1012.82 1012.78 1012.78 1012.74 1012.74 1012.74 1012.74 1012.78 1012.90 1012.98 1012.98 1013.10 1013.26 1013.46 1013.62 1013.78 1013.94 1014.18 1014.38
1017.86 1017.94 1018.06 1018.06 1018.10 1018.10 1018.14 1018.14 1018.18 1018.18 1018.30 1018.34 1018.42 1018.54 1018.78 1018.98 1018.98 1018.98 1019.18 1019.22 1018.14 1018.02 1017.98 1017.62 1017.30 1017.18 1016.90 1016.90 1016.90 1016.74 1016.50 1016.30 1016.26 1016.14 1015.98 1015.74 1015.46 1015.26 1015.02 1014.86 1014.66 1014.42 1014.18 1013.94 1013.70 1013.54 1013.38 1013.26 1013.10 1012.94 1012.78 1012.66 1012.54 1012.46 1012.42 1012.38 1012.34 1012.34 1012.30 1012.30 1012.30 1012.30 1012.34 1012.42 1012.50 1012.58 1012.62 1012.74 1012.94 1013.14 1013.34 1013.50 1013.74 1013.90
1017.58 1017.74 1017.86 1017.82 1017.86 1017.90 1018.02 1018.06 1018.02 1017.90 1017.94 1017.98 1018.14 1018.30 1018.46 1018.54 1018.66 1018.86 1019.02 1019.10 1018.18 1017.54 1017.58 1017.42 1017.10 1016.98 1016.86 1016.66 1016.70 1016.42 1016.18 1015.94 1015.90 1015.82 1015.70 1015.50 1015.30 1015.02 1014.74 1014.50 1014.34 1014.14 1013.90 1013.66 1013.42 1013.22 1013.06 1012.90 1012.78 1012.58 1012.42 1012.26 1012.10 1012.02 1011.90 1011.86 1011.82 1011.82 1011.78 1011.78 1011.78 1011.82 1011.86 1011.90 1012.02 1012.10 1012.18 1012.26 1012.42 1012.62 1012.82 1013.06 1013.26 1013.46
1017.42 1017.58 1017.66 1017.62 1017.54 1017.66 1017.86 1017.78 1017.78 1017.82 1017.78 1017.90 1017.90 1017.98 1018.14 1018.18 1018.30 1018.54 1018.78 1018.78 1018.14 1017.14 1016.98 1017.18 1017.02 1016.74 1016.82 1016.58 1016.10 1016.10 1015.82 1015.66 1015.50 1015.42 1015.30 1015.22 1015.10 1014.86 1014.54 1014.18 1013.94 1013.82 1013.62 1013.42 1013.18 1012.90 1012.70 1012.50 1012.38 1012.22 1011.98 1011.82 1011.62 1011.50 1011.38 1011.30 1011.26 1011.26 1011.26 1011.26 1011.30 1011.34 1011.38 1011.42 1011.50 1011.58 1011.70 1011.82 1011.94 1012.14 1012.38 1012.58 1012.82 1013.02
1017.18 1017.30 1017.50 1017.42 1017.34 1017.42 1017.58 1017.58 1017.66 1017.58 1017.66 1017.74 1017.82 1017.82 1017.86 1017.86 1017.82 1017.98 1018.30 1018.26 1018.18 1017.42 1016.70 1016.94 1016.82 1016.74 1016.54 1016.62 1015.70 1015.82 1015.58 1015.34 1015.18 1015.14 1014.94 1014.82 1014.74 1014.58 1014.26 1013.98 1013.58 1013.42 1013.30 1013.10 1012.86 1012.66 1012.34 1012.10 1011.90 1011.74 1011.54 1011.34 1011.14 1010.98 1010.86 1010.78 1010.70 1010.66 1010.66 1010.66 1010.70 1010.78 1010.90 1010.98 1011.06 1011.10 1011.18 1011.34 1011.50 1011.70 1011.90 1012.14 1012.34 1012.50
1016.98 1017.22 1017.30 1017.22 1017.18 1017.30 1017.46 1017.42 1017.38 1017.42 1017.50 1017.50 1017.58 1017.54 1017.54 1017.58 1017.46 1017.58 1017.74 1017.90 1017.90 1017.58 1016.82 1016.50 1016.66 1016.54 1016.30 1016.26 1015.70 1015.38 1015.22 1015.06 1014.98 1014.94 1014.66 1014.50 1014.30 1014.14 1013.94 1013.74 1013.38 1013.06 1012.90 1012.66 1012.46 1012.22 1012.02 1011.74 1011.46 1011.26 1011.06 1010.86 1010.66 1010.46 1010.34 1010.22 1010.14 1010.10 1010.10 1010.10 1010.10 1010.18 1010.30 1010.42 1010.58 1010.66 1010.70 1010.82 1011.02 1011.22 1011.46 1011.66 1011.86 1012.06
1016.94 1016.98 1017.14 1017.02 1017.02 1017.14 1017.26 1017.18 1017.22 1017.22 1017.26 1017.38 1017.34 1017.30 1017.22 1017.26 1017.22 1017.14 1017.42 1017.58 1017.70 1017.34 1017.14 1016.22 1016.38 1016.18 1016.26 1015.74 1015.42 1015.22 1014.98 1014.90 1014.66 1014.54 1014.30 1014.10 1013.98 1013.74 1013.54 1013.34 1013.10 1012.74 1012.54 1012.30 1012.02 1011.70 1011.46 1011.30 1011.06 1010.78 1010.54 1010.30 1010.10 1009.90 1009.74 1009.62 1009.54 1009.50 1009.46 1009.50 1009.54 1009.58 1009.70 1009.82 1010.02 1010.14 1010.22 1010.34 1010.50 1010.70 1010.94 1011.18 1011.42 1011.58
1016.70 1016.82 1016.86 1016.70 1016.82 1016.90 1017.06 1016.98 1017.02 1016.94 1017.10 1017.02 1017.10 1017.06 1016.90 1016.94 1016.82 1016.90 1017.02 1017.14 1017.30 1017.38 1017.18 1016.34 1015.86 1015.86 1015.86 1015.58 1015.26 1015.02 1014.94 1014.46 1014.30 1014.10 1013.98 1013.82 1013.66 1013.34 1013.06 1012.86 1012.54 1012.22 1012.02 1011.86 1011.54 1011.22 1010.90 1010.62 1010.46 1010.22 1010.02 1009.74 1009.54 1009.30 1009.14 1009.02 1008.90 1008.86 1008.86 1008.90 1008.94 1008.98 1009.06 1009.22 1009.42 1009.58 1009.74 1009.86 1009.98 1010.18 1010.42 1010.66 1010.90 1011.06
1016.50 1016.58 1016.54 1016.50 1016.58 1016.66 1016.74 1016.58 1016.54 1016.62 1016.70 1016.74 1016.86 1016.78 1016.66 1016.58 1016.58 1016.70 1016.70 1016.78 1016.94 1017.02 1016.74 1016.54 1015.98 1015.54 1015.54 1015.34 1015.06 1014.58 1014.58 1014.58 1014.26 1013.90 1013.46 1013.34 1013.30 1013.06 1012.66 1012.34 1012.10 1011.78 1011.50 1011.26 1010.94 1010.62 1010.30 1009.94 1009.70 1009.50 1009.34 1009.14 1008.90 1008.70 1008.50 1008.34 1008.26 1008.22 1008.18 1008.26 1008.30 1008.34 1008.42 1008.54 1008.74 1008.98 1009.18 1009.30 1009.46 1009.66 1009.86 1010.10 1010.34 1010.54
1016.30 1016.34 1016.34 1016.30 1016.34 1016.38 1016.34 1016.30 1016.26 1016.30 1016.38 1016.42 1016.34 1016.26 1016.22 1016.14 1016.34 1016.42 1016.38 1016.46 1016.58 1016.62 1016.54 1016.26 1015.98 1015.54 1015.10 1015.10 1014.94 1014.26 1014.22 1014.26 1014.18 1013.98 1013.62 1013.22 1012.78 1012.66 1012.46 1011.90 1011.50 1011.30 1010.86 1010.62 1010.50 1010.18 1009.82 1009.46 1009.18 1008.82 1008.62 1008.42 1008.22 1008.02 1007.82 1007.62 1007.54 1007.50 1007.50 1007.54 1007.62 1007.74 1007.82 1007.90 1008.06 1008.30 1008.54 1008.74 1008.94 1009.14 1009.34 1009.58 1009.78 1010.02
1016.06 1016.06 1016.10 1016.06 1016.02 1015.98 1015.94 1015.94 1015.90 1015.98 1016.02 1015.94 1015.98 1015.82 1015.94 1015.94 1016.10 1016.14 1016.10 1016.22 1016.22 1016.26 1016.22 1016.14 1015.74 1015.34 1015.06 1014.66 1014.38 1014.18 1014.18 1014.14 1013.74 1013.54 1013.42 1013.10 1012.54 1012.10 1011.86 1011.78 1011.38 1010.74 1010.50 1009.94 1009.58 1009.34 1009.10 1008.78 1008.46 1008.18 1007.90 1007.66 1007.46 1007.26 1007.02 1006.78 1006.70 1006.66 1006.70 1006.78 1006.86 1007.02 1007.18 1007.26 1007.42 1007.62 1007.90 1008.14 1008.38 1008.58 1008.82 1009.06 1009.30 1009.54
1015.86 1015.86 1015.86 1015.82 1015.74 1015.62 1015.54 1015.50 1015.54 1015.50 1015.50 1015.58 1015.66 1015.54 1015.58 1015.70 1015.82 1015.86 1015.90 1015.90 1015.90 1015.82 1015.86 1015.74 1015.42 1015.22 1014.94 1014.58 1014.34 1014.22 1014.10 1013.90 1013.62 1013.14 1013.10 1012.66 1012.30 1011.90 1011.34 1010.78 1010.78 1010.42 1009.94 1009.34 1008.98 1008.70 1008.66 1008.38 1007.90 1007.58 1007.18 1006.78 1006.66 1006.34 1006.14 1005.86 1005.74 1005.74 1005.86 1005.98 1006.10 1006.26 1006.46 1006.62 1006.78 1007.02 1007.30 1007.62 1007.86 1008.10 1008.34 1008.54 1008.78 1009.02
1015.58 1015.62 1015.62 1015.54 1015.42 1015.38 1015.30 1015.26 1015.22 1015.18 1015.14 1015.14 1015.18 1015.10 1015.18 1015.30 1015.46 1015.50 1015.58 1015.58 1015.46 1015.50 1015.50 1015.38 1015.18 1015.02 1014.74 1014.34 1014.06 1013.90 1013.54 1013.26 1013.10 1013.10 1012.86 1012.58 1011.90 1011.62 1011.06 1010.38 1010.14 1009.82 1009.46 1008.90 1008.34 1007.94 1008.02 1007.86 1007.26 1007.02 1006.66 1006.10 1005.98 1005.62 1005.38 1005.02 1004.90 1004.90 1005.02 1005.14 1005.26 1005.42 1005.62 1005.86 1006.10 1006.42 1006.74 1007.06 1007.34 1007.62 1007.82 1007.98 1008.22 1008.50
1015.22 1015.30 1015.34 1015.30 1015.22 1015.18 1015.14 1015.02 1014.90 1014.82 1014.78 1014.74 1014.74 1014.74 1014.74 1014.74 1014.90 1015.10 1015.22 1015.10 1014.98 1015.14 1015.06 1014.90 1014.90 1014.82 1014.54 1014.06 1013.70 1013.50 1013.18 1013.02 1012.90 1012.86 1012.58 1012.34 1011.98 1011.82 1011.26 1010.02 1008.82 1009.30 1009.38 1008.70 1008.18 1007.02 1007.18 1007.34 1006.94 1006.30 1005.98 1005.58 1005.34 1005.06 1004.82 1004.58 1004.42 1004.30 1004.30 1004.34 1004.46 1004.62 1004.90 1005.14 1005.42 1005.74 1006.06 1006.38 1006.70 1006.98 1007.26 1007.46 1007.66 1007.94
1015.02 1015.02 1015.02 1015.02 1015.02 1014.98 1014.90 1014.78 1014.66 1014.54 1014.46 1014.42 1014.38 1014.38 1014.42 1014.50 1014.50 1014.54 1014.58 1014.62 1014.70 1014.66 1014.74 1014.66 1014.62 1014.54 1014.22 1013.82 1013.50 1013.06 1012.90 1012.66 1012.54 1012.34 1012.22 1012.18 1011.90 1011.50 1011.06 1010.38 1009.50 1008.26 1009.06 1008.66 1007.78 1006.58 1006.02 1006.62 1006.14 1005.58 1005.02 1004.78 1004.50 1004.22 1004.02 1003.98 1003.82 1003.70 1003.62 1003.70 1003.78 1003.94 1004.18 1004.42 1004.66 1004.98 1005.38 1005.70 1006.02 1006.34 1006.62 1006.86 1007.10 1007.38
1014.82 1014.86 1014.90 1014.86 1014.78 1014.74 1014.70 1014.58 1014.46 1014.42 1014.30 1014.18 1014.14 1014.14 1014.18 1014.18 1014.18 1014.22 1014.22 1014.22 1014.18 1014.06 1014.26 1014.50 1014.58 1014.30 1013.90 1013.78 1013.22 1012.82 1012.62 1012.46 1012.42 1012.10 1011.94 1011.74 1011.54 1011.18 1010.66 1009.86 1008.94 1007.90 1008.46 1008.62 1007.62 1006.26 1005.18 1005.90 1005.38 1004.82 1003.98 1003.94 1003.66 1003.38 1003.22 1003.14 1003.10 1003.06 1003.02 1003.06 1003.14 1003.30 1003.50 1003.74 1003.98 1004.26 1004.62 1004.98 1005.34 1005.70 1006.02 1006.26 1006.50 1006.78
1014.74 1014.66 1014.74 1014.82 1014.70 1014.50 1014.46 1014.38 1014.34 1014.34 1014.22 1014.10 1013.98 1013.94 1013.94 1013.94 1013.90 1013.94 1013.94 1013.98 1014.06 1014.14 1014.26 1014.26 1014.14 1013.62 1013.54 1013.42 1013.06 1012.54 1012.38 1012.34 1012.14 1011.90 1011.74 1011.66 1011.26 1010.78 1010.14 1009.02 1008.54 1007.82 1008.18 1008.22 1007.50 1005.74 1004.70 1005.06 1004.74 1004.06 1003.18 1003.22 1002.78 1002.54 1002.42 1002.42 1002.30 1002.26 1002.26 1002.34 1002.46 1002.62 1002.82 1003.02 1003.30 1003.58 1003.90 1004.26 1004.66 1005.02 1005.38 1005.66 1005.86 1006.10
1014.54 1014.50 1014.54 1014.62 1014.62 1014.46 1014.30 1014.18 1014.26 1014.26 1014.14 1014.02 1013.94 1013.90 1013.86 1013.82 1013.78 1013.74 1013.70 1013.70 1013.74 1013.78 1013.74 1013.70 1013.62 1013.42 1013.18 1012.90 1012.70 1012.50 1012.22 1012.06 1011.74 1011.66 1011.54 1011.30 1010.74 1010.14 1009.46 1008.86 1008.10 1007.22 1007.30 1007.14 1007.10 1005.74 1004.02 1004.18 1004.02 1003.02 1002.46 1002.34 1002.18 1001.78 1001.58 1001.58 1001.62 1001.66 1001.70 1001.70 1001.74 1001.94 1002.14 1002.34 1002.62 1002.94 1003.30 1003.62 1003.98 1004.34 1004.74 1005.02 1005.26 1005.54
1014.38 1014.38 1014.46 1014.54 1014.54 1014.46 1014.30 1014.22 1014.34 1014.38 1014.26 1014.06 1013.98 1013.94 1013.90 1013.86 1013.78 1013.66 1013.58 1013.54 1013.50 1013.46 1013.38 1013.34 1013.22 1013.02 1012.82 1012.70 1012.58 1012.34 1012.10 1011.86 1011.62 1011.38 1010.94 1010.70 1010.34 1009.90 1009.26 1008.50 1007.30 1006.78 1005.98 1006.14 1006.06 1005.10 1003.62 1003.38 1003.14 1002.10 1001.62 1001.66 1001.50 1001.10 1000.86 1000.66 1000.74 1000.78 1000.86 1000.98 1001.06 1001.22 1001.42 1001.62 1001.86 1002.22 1002.62 1002.98 1003.34 1003.74 1004.10 1004.38 1004.66 1004.94
1014.14 1014.26 1014.34 1014.42 1014.42 1014.38 1014.30 1014.38 1014.50 1014.42 1014.22 1014.02 1013.94 1013.98 1013.98 1013.94 1013.86 1013.62 1013.34 1013.22 1013.18 1013.22 1013.18 1013.10 1012.98 1012.82 1012.62 1012.38 1012.14 1012.02 1011.82 1011.66 1011.38 1011.26 1010.98 1010.38 1009.86 1009.66 1008.98 1007.86 1007.14 1005.90 1005.50 1004.90 1004.94 1004.38 1003.38 1002.34 1002.06 1001.58 1001.02 1001.06 1000.86 1000.58 1000.26 1000.02 999.94 999.94 999.98 1000.10 1000.26 1000.46 1000.70 1000.94 1001.22 1001.54 1001.90 1002.30 1002.74 1003.14 1003.50 1003.78 1004.10 1004.38
1014.10 1014.14 1014.22 1014.26 1014.34 1014.38 1014.38 1014.58 1014.58 1014.50 1014.18 1013.98 1014.02 1014.06 1014.10 1014.02 1013.86 1013.58 1013.26 1013.10 1013.06 1013.06 1012.98 1012.74 1012.54 1012.30 1012.10 1011.90 1011.70 1011.50 1011.30 1011.06 1011.06 1011.18 1010.90 1010.02 1009.90 1009.50 1008.82 1007.90 1006.66 1005.14 1004.78 1004.18 1003.94 1003.42 1002.62 1001.46 1001.06 1001.14 1000.50 1000.46 1000.06 999.94 999.74 999.66 999.50 999.42 999.34 999.38 999.50 999.74 1000.02 1000.30 1000.58 1000.90 1001.26 1001.66 1002.06 1002.54 1002.94 1003.26 1003.62 1004.18
1013.90 1013.94 1014.10 1014.22 1014.38 1014.46 1014.50 1014.66 1014.62 1014.42 1014.14 1013.98 1014.06 1014.10 1014.14 1014.02 1013.82 1013.50 1013.46 1013.46 1013.18 1012.82 1012.58 1012.26 1012.06 1011.74 1011.58 1011.46 1011.22 1010.90 1010.78 1010.66 1010.50 1010.38 1010.22 1009.86 1009.78 1009.26 1008.46 1007.70 1006.66 1005.06 1003.34 1003.38 1003.22 1002.94 1001.46 1001.30 1000.22 1000.62 1000.58 1000.26 999.34 999.18 998.98 998.98 998.94 998.86 998.66 998.62 998.82 999.02 999.34 999.66 1000.02 1000.38 1000.70 1001.10 1001.46 1001.90 1002.34 1002.74 1003.38 1003.86
1013.70 1013.82 1013.98 1014.18 1014.34 1014.50 1014.62 1014.58 1014.38 1014.18 1014.06 1013.94 1014.06 1014.10 1014.10 1014.02 1013.74 1013.62 1013.78 1013.62 1013.46 1013.02 1012.66 1012.26 1011.98 1011.82 1011.54 1011.26 1010.98 1010.70 1010.42 1010.14 1009.94 1009.82 1009.66 1009.50 1009.38 1009.10 1008.38 1007.62 1006.98 1005.94 1003.54 1001.86 1002.62 1002.42 1000.82 1000.30 999.82 999.66 999.86 1000.02 999.34 998.18 997.94 997.98 998.02 998.02 997.94 997.98 998.22 998.34 998.82 999.22 999.62 999.86 1000.18 1000.58 1000.98 1001.38 1001.78 1002.26 1002.94 1003.26
1013.62 1013.70 1013.90 1014.10 1014.22 1014.38 1014.46 1014.38 1014.18 1014.02 1014.06 1014.22 1014.18 1014.14 1014.14 1014.06 1014.02 1014.10 1013.90 1013.46 1013.26 1012.90 1012.54 1012.34 1012.18 1011.90 1011.58 1011.26 1010.90 1010.58 1010.34 1010.02 1009.70 1009.46 1009.26 1009.06 1008.90 1008.70 1008.10 1007.18 1006.26 1004.98 1003.30 1002.02 1001.58 1001.54 1000.42 999.58 999.42 999.34 999.38 999.46 999.10 998.90 997.70 997.34 997.14 997.26 997.26 997.38 997.66 997.74 998.22 998.74 999.06 999.46 999.90 1000.26 1000.54 1000.90 1001.38 1001.90 1002.34 1002.38
1013.62 1013.70 1013.82 1013.94 1014.10 1014.26 1014.26 1014.14 1014.06 1014.06 1014.10 1014.26 1014.18 1014.26 1014.42 1014.34 1014.22 1014.06 1013.66 1013.30 1013.02 1012.86 1012.70 1012.50 1012.30 1012.02 1011.70 1011.34 1010.94 1010.62 1010.26 1009.90 1009.58 1009.34 1009.02 1008.58 1008.18 1007.74 1007.42 1006.94 1006.06 1004.70 1002.90 1001.38 1000.94 1000.42 999.90 999.38 999.14 999.18 999.10 999.14 998.78 998.82 998.42 997.54 996.90 996.78 996.82 996.98 997.14 997.34 997.70 998.14 998.62 998.90 999.22 999.70 1000.18 1000.54 1000.82 1001.26 1001.66 1001.90
1013.54 1013.74 1013.78 1013.82 1014.06 1014.14 1014.14 1014.06 1013.98 1013.94 1014.06 1014.14 1014.30 1014.42 1014.34 1014.22 1014.06 1013.82 1013.54 1013.38 1013.18 1012.98 1012.74 1012.62 1012.42 1012.10 1011.78 1011.46 1011.06 1010.66 1010.22 1009.74 1009.42 1009.10 1008.66 1008.06 1007.54 1006.98 1006.42 1005.86 1005.38 1004.54 1003.14 1001.82 1000.66 999.82 999.50 999.10 998.70 998.78 998.74 998.50 998.42 998.14 998.10 997.78 997.18 996.62 996.78 996.86 996.98 997.10 997.42 997.66 998.10 998.34 998.62 999.14 999.42 999.82 1000.38 1000.82 1001.22 1001.54
1013.78 1013.70 1013.70 1013.82 1014.02 1014.06 1013.94 1013.90 1013.98 1014.06 1014.14 1014.22 1014.34 1014.34 1014.22 1014.06 1013.86 1013.74 1013.66 1013.46 1013.26 1013.02 1012.86 1012.74 1012.50 1012.18 1011.78 1011.50 1011.14 1010.70 1010.26 1009.78 1009.30 1008.78 1008.14 1007.58 1007.02 1006.58 1005.90 1005.06 1004.26 1003.38 1002.38 1001.30 1000.46 999.66 999.10 998.86 998.46 998.18 998.26 998.26 998.14 997.90 997.54 996.86 996.74 996.62 996.70 996.62 996.78 996.94 997.18 997.46 997.74 997.98 998.22 998.58 999.06 999.74 1000.38 1000.94 1001.34 1001.74
1013.66 1013.70 1013.78 1013.94 1013.94 1013.90 1013.90 1013.90 1013.98 1013.98 1014.10 1014.18 1014.22 1014.14 1014.02 1013.90 1013.82 1013.82 1013.70 1013.50 1013.26 1013.14 1012.98 1012.82 1012.54 1012.14 1011.78 1011.54 1011.14 1010.66 1010.18 1009.54 1009.02 1008.54 1007.86 1007.26 1006.62 1006.02 1005.42 1004.66 1003.74 1002.78 1001.86 1000.90 1000.10 999.42 998.90 998.42 998.14 997.98 998.02 997.94 997.94 997.34 997.06 996.70 996.50 996.42 996.38 996.70 997.02 996.90 997.02 997.18 997.38 997.70 998.02 998.30 998.66 999.18 999.50 999.86 1000.50 1000.94
1013.70 1013.74 1013.78 1013.78 1013.86 1013.86 1013.86 1013.82 1013.82 1013.94 1014.02 1014.10 1014.10 1014.02 1013.86 1013.82 1013.86 1013.78 1013.70 1013.54 1013.38 1013.26 1013.06 1012.86 1012.62 1012.22 1011.78 1011.34 1010.86 1010.38 1009.94 1009.50 1008.98 1008.54 1007.98 1007.30 1006.46 1005.78 1005.14 1004.34 1003.22 1002.18 1001.38 1000.62 999.82 999.22 998.62 998.14 997.74 997.66 997.70 997.54 997.46 997.22 996.74 996.54 996.42 996.14 996.14 996.34 996.34 996.58 996.78 996.98 997.14 997.34 997.74 998.10 998.30 998.58 998.82 999.14 999.46 999.94
1013.78 1013.74 1013.74 1013.74 1013.70 1013.66 1013.74 1013.82 1013.98 1014.02 1013.98 1013.98 1013.98 1013.86 1013.78 1013.78 1013.78 1013.74 1013.70 1013.58 1013.50 1013.34 1013.18 1012.86 1012.50 1012.14 1011.70 1011.22 1010.74 1010.30 1009.90 1009.42 1008.82 1008.50 1008.10 1007.54 1006.66 1005.86 1005.14 1004.50 1003.26 1001.98 1000.78 1000.02 999.54 998.94 998.38 997.98 997.54 997.18 997.30 997.22 997.14 996.86 996.66 996.42 996.30 996.10 996.02 996.02 996.22 996.74 996.66 996.86 997.18 997.46 997.86 998.14 998.18 998.42 998.70 999.06 999.50 999.74
1013.90 1013.74 1013.86 1013.86 1013.70 1013.70 1013.82 1013.90 1013.98 1014.02 1014.02 1013.98 1013.94 1013.86 1013.78 1013.74 1013.74 1013.70 1013.62 1013.50 1013.46 1013.34 1013.14 1012.82 1012.42 1012.02 1011.62 1011.26 1010.78 1010.30 1009.86 1009.34 1008.74 1008.30 1007.98 1007.50 1006.66 1005.86 1005.26 1004.46 1003.38 1002.30 1001.14 999.94 999.06 998.42 997.98 997.66 997.26 996.86 996.82 996.98 997.14 996.66 996.42 996.26 996.18 996.06 995.94 995.90 996.02 996.06 996.30 996.66 996.78 996.90 997.10 997.82 998.54 998.50 998.62 998.86 999.14 999.46
1013.86 1013.74 1013.78 1013.74 1013.78 1013.74 1013.78 1013.86 1013.98 1014.02 1014.06 1013.94 1013.94 1013.82 1013.70 1013.70 1013.74 1013.70 1013.66 1013.62 1013.50 1013.34 1013.02 1012.70 1012.42 1012.06 1011.66 1011.26 1010.78 1010.34 1009.78 1009.18 1008.70 1008.18 1007.78 1007.22 1006.90 1005.98 1005.42 1004.86 1003.86 1002.82 1001.78 1000.66 999.70 998.66 997.98 997.50 997.10 996.66 996.38 996.62 996.82 996.70 996.42 996.18 995.82 995.70 995.90 995.86 995.90 996.06 996.18 996.26 996.30 996.66 997.14 997.74 997.90 997.94 998.34 998.70 998.94 999.18
1013.62 1013.70 1013.66 1013.66 1013.66 1013.82 1013.86 1013.90 1013.98 1013.90 1013.90 1013.86 1013.82 1013.78 1013.66 1013.62 1013.62 1013.58 1013.62 1013.58 1013.54 1013.26 1013.02 1012.78 1012.46 1012.10 1011.78 1011.38 1010.94 1010.46 1009.94 1009.18 1008.62 1008.26 1008.06 1007.34 1006.78 1006.34 1005.74 1005.02 1004.06 1003.14 1002.42 1001.50 1000.30 999.30 998.42 997.78 997.22 996.94 996.78 996.74 996.78 996.86 996.74 996.30 995.70 995.50 995.58 995.74 995.82 995.94 995.94 995.98 996.22 996.70 997.14 997.26 997.78 998.30 998.42 998.66 998.86 999.06
1013.38 1013.42 1013.38 1013.58 1013.66 1013.74 1013.86 1013.90 1013.94 1013.90 1013.90 1013.78 1013.74 1013.58 1013.50 1013.46 1013.50 1013.58 1013.62 1013.58 1013.50 1013.30 1013.02 1012.74 1012.46 1012.18 1011.90 1011.54 1011.10 1010.66 1010.06 1009.54 1008.86 1008.22 1007.74 1007.38 1006.82 1006.38 1005.86 1005.26 1004.30 1003.38 1002.66 1001.78 1000.66 999.66 998.94 998.22 997.74 997.10 996.78 996.54 996.46 996.78 996.78 996.90 996.58 995.94 995.58 995.74 995.66 995.78 995.86 995.90 996.18 996.74 997.26 997.38 997.22 997.66 998.02 998.34 998.66 998.78
1013.14 1013.10 1013.22 1013.54 1013.62 1013.74 1013.78 1013.86 1013.86 1013.82 1013.82 1013.74 1013.74 1013.58 1013.38 1013.30 1013.42 1013.62 1013.66 1013.66 1013.58 1013.30 1013.06 1012.82 1012.50 1012.18 1011.86 1011.54 1011.10 1010.66 1010.18 1009.62 1009.06 1008.50 1007.86 1007.38 1006.94 1006.38 1005.74 1005.26 1004.66 1003.82 1003.14 1002.34 1001.26 1000.22 999.42 998.74 998.22 997.70 997.02 996.58 996.46 996.54 996.94 997.34 997.34 996.98 996.26 995.82 995.90 995.82 995.90 996.06 996.22 996.58 997.10 997.26 997.10 997.26 997.74 998.02 998.22 998.38
1013.02 1013.18 1013.26 1013.42 1013.58 1013.66 1013.78 1013.90 1013.86 1013.82 1013.82 1013.74 1013.62 1013.58 1013.54 1013.50 1013.50 1013.70 1013.78 1013.74 1013.50 1013.26 1013.14 1012.90 1012.58 1012.22 1011.86 1011.54 1011.10 1010.66 1010.18 1009.74 1009.18 1008.62 1008.18 1007.62 1007.18 1006.74 1006.10 1005.34 1004.78 1004.30 1003.62 1002.66 1001.66 1000.70 999.86 999.14 998.50 997.94 997.42 996.82 996.86 997.38 997.62 997.54 998.02 997.58 997.50 996.66 996.10 995.98 996.10 996.30 996.46 996.74 996.98 997.02 997.14 997.22 997.38 997.62 997.90 998.06
1012.78 1013.14 1013.26 1013.38 1013.50 1013.62 1013.66 1013.74 1013.74 1013.78 1013.82 1013.78 1013.74 1013.66 1013.62 1013.70 1013.74 1013.82 1013.74 1013.58 1013.42 1013.26 1013.06 1012.82 1012.50 1012.18 1011.86 1011.54 1011.18 1010.66 1010.18 1009.70 1009.22 1008.74 1008.30 1007.82 1007.34 1006.78 1006.38 1005.94 1005.26 1004.62 1004.06 1003.18 1002.22 1001.30 1000.34 999.70 999.10 998.66 998.34 998.34 998.42 998.42 998.02 997.78 997.42 997.14 997.46 997.30 996.94 996.74 996.46 996.38 996.66 996.86 996.98 996.94 997.06 997.06 997.18 997.58 997.70 997.74
1012.74 1012.98 1013.10 1013.30 1013.42 1013.58 1013.70 1013.78 1013.78 1013.86 1013.94 1013.90 1013.82 1013.78 1013.82 1013.78 1013.82 1013.82 1013.74 1013.62 1013.50 1013.34 1013.10 1012.78 1012.46 1012.26 1011.98 1011.58 1011.22 1010.82 1010.38 1009.78 1009.22 1008.78 1008.34 1007.90 1007.54 1007.18 1006.58 1006.10 1005.54 1004.74 1004.18 1003.46 1002.54 1001.58 1000.66 1000.06 999.62 999.34 999.06 998.94 998.98 998.94 998.50 997.82 997.98 998.02 997.86 997.70 997.54 997.10 996.94 996.94 996.74 996.90 997.02 997.10 997.06 997.02 997.18 997.10 997.14 997.30
1012.94 1012.98 1013.14 1013.30 1013.46 1013.66 1013.78 1013.90 1013.94 1014.02 1014.02 1014.02 1014.06 1013.94 1013.98 1013.98 1014.06 1014.02 1013.86 1013.74 1013.62 1013.42 1013.14 1012.86 1012.62 1012.30 1011.90 1011.58 1011.26 1010.74 1010.26 1009.82 1009.38 1008.94 1008.42 1008.02 1007.54 1007.10 1006.70 1006.26 1005.90 1005.30 1004.50 1003.70 1002.98 1002.18 1001.38 1000.82 1000.34 1000.06 999.82 999.42 999.02 998.70 998.42 997.98 997.98 998.06 998.06 997.98 998.18 998.10 997.94 997.62 997.18 997.06 997.02 997.02 997.06 997.38 997.66 997.62 997.86 997.86
1013.02 1013.10 1013.18 1013.30 1013.46 1013.66 1013.78 1013.90 1014.06 1014.10 1014.10 1014.22 1014.26 1014.06 1014.14 1014.26 1014.22 1014.02 1013.98 1013.94 1013.82 1013.58 1013.18 1012.90 1012.66 1012.38 1011.98 1011.66 1011.30 1010.90 1010.42 1009.82 1009.34 1008.90 1008.38 1007.98 1007.62 1007.18 1006.70 1006.26 1005.90 1005.42 1004.98 1004.14 1003.50 1002.90 1002.26 1001.78 1001.02 1000.46 1000.06 999.62 999.10 998.58 998.06 997.94 998.46 998.86 998.74 998.78 998.74 998.70 998.38 998.02 997.94 997.70 997.46 997.34 997.18 997.34 997.62 997.74 997.90 997.98
1012.86 1012.98 1013.30 1013.46 1013.50 1013.70 1013.86 1013.94 1014.10 1014.10 1014.18 1014.30 1014.34 1014.26 1014.26 1014.22 1014.22 1014.38 1014.26 1014.10 1013.98 1013.58 1013.30 1012.98 1012.74 1012.42 1012.02 1011.70 1011.30 1010.86 1010.46 1009.98 1009.50 1009.06 1008.58 1008.06 1007.58 1007.14 1006.74 1006.46 1006.14 1005.70 1005.38 1004.82 1004.18 1003.58 1002.78 1001.98 1001.26 1000.70 1000.30 999.90 999.38 999.02 999.46 999.70 999.66 999.50 999.34 999.26 999.06 998.98 998.86 998.62 998.34 998.18 998.10 997.82 997.38 997.30 997.54 997.70 997.66 997.90
1012.94 1013.02 1013.26 1013.54 1013.74 1013.86 1013.98 1014.02 1014.10 1014.14 1014.26 1014.38 1014.42 1014.38 1014.26 1014.18 1014.30 1014.26 1014.14 1014.02 1013.90 1013.62 1013.34 1013.10 1012.78 1012.50 1012.10 1011.70 1011.30 1010.94 1010.46 1009.98 1009.62 1009.26 1008.78 1008.30 1007.94 1007.58 1007.22 1006.74 1006.30 1006.06 1005.66 1005.06 1004.30 1003.62 1003.02 1002.38 1001.78 1001.30 1000.90 1000.66 1000.50 1000.18 1000.42 1000.34 1000.22 999.98 999.86 999.70 999.66 999.46 999.18 998.98 998.74 998.42 998.22 998.18 998.22 998.22 998.02 997.70 997.62 997.90
1012.98 1013.10 1013.38 1013.62 1013.74 1013.86 1013.98 1014.06 1014.14 1014.30 1014.38 1014.42 1014.38 1014.38 1014.22 1014.26 1014.22 1014.30 1014.30 1014.14 1013.94 1013.74 1013.46 1013.18 1012.90 1012.54 1012.18 1011.70 1011.30 1010.86 1010.46 1010.10 1009.78 1009.46 1008.98 1008.50 1008.10 1007.82 1007.54 1006.94 1006.34 1006.10 1005.66 1005.14 1004.54 1003.94 1003.46 1002.90 1002.50 1002.14 1001.78 1001.70 1001.42 1001.02 1001.02 1000.82 1000.74 1000.62 1000.50 1000.38 1000.14 999.86 999.70 999.38 998.94 998.46 998.18 998.34 998.54 998.46 998.34 998.22 998.14 998.18
1013.02 1013.14 1013.42 1013.70 1013.74 1013.90 1014.02 1014.10 1014.14 1014.26 1014.42 1014.42 1014.38 1014.30 1014.30 1014.34 1014.26 1014.26 1014.22 1014.14 1013.94 1013.82 1013.54 1013.26 1012.94 1012.54 1012.22 1011.78 1011.38 1011.02 1010.62 1010.26 1009.94 1009.46 1009.06 1008.58 1008.14 1007.82 1007.54 1007.10 1006.50 1006.14 1005.90 1005.50 1005.10 1004.50 1004.10 1003.58 1003.06 1002.70 1002.50 1002.38 1002.18 1001.90 1001.58 1001.46 1001.46 1001.14 1000.90 1000.74 1000.62 1000.26 999.98 999.66 999.34 999.02 998.90 999.02 999.18 999.02 998.78 998.58 998.50 998.46
Wind_Speed
5 5 6 5 5 4 4 4 4 4 3 3 4 5 6 5 3 3 3 4 3 2 4 2 3 4 4 3 3 4 4 7 9 8 8 8 7 11 15 16 17 17 18 18 19 19 18 19 19 19 20 20 21 20 20 20 20 20 20 21 21 20 20 20 20 21 21 22 22 22 22 22 22 21
4 4 4 4 5 3 3 4 4 4 4 3 4 4 3 4 6 4 6 7 5 3 3 5 5 3 4 3 5 4 6 8 9 7 8 8 8 13 16 16 16 17 18 18 18 19 19 19 19 19 19 20 20 21 20 20 20 20 21 21 21 21 20 20 20 21 21 22 22 22 22 22 22 21
4 5 6 4 5 4 5 5 4 3 4 4 4 4 4 5 6 6 3 6 3 5 4 5 5 5 5 4 5 5 6 7 9 8 7 8 12 17 13 15 16 17 18 18 19 19 19 19 20 20 20 20 21 21 21 21 21 21 21 21 21 21 21 21 21 21 22 22 22 22 22 22 22 22
4 5 6 6 5 4 4 4 5 5 5 5 4 4 5 6 7 5 3 6 12 5 5 6 6 6 7 5 6 7 5 6 10 7 7 8 14 10 9 12 14 16 17 18 19 19 20 19 20 21 21 21 21 22 22 22 22 21 21 21 21 21 21 21 21 21 21 21 21 22 22 22 22 22
4 5 6 7 6 4 6 5 5 5 6 5 5 5 5 4 5 6 7 6 9 9 4 5 5 4 4 7 5 6 6 6 5 7 7 8 8 8 8 9 13 16 16 18 19 20 20 20 20 21 22 22 23 23 23 23 22 22 22 21 21 21 21 21 21 21 21 21 21 21 21 21 22 22
4 4 5 7 6 5 7 6 6 6 5 6 5 6 6 6 6 6 6 7 6 12 7 4 3 6 4 7 7 6 8 8 7 8 8 7 7 7 8 9 9 14 17 18 19 20 21 21 21 22 22 23 23 23 23 23 23 22 22 22 21 21 21 21 21 21 21 21 21 21 21 21 22 22
4 4 5 7 5 3 5 6 6 5 6 5 6 7 5 7 7 6 7 5 7 11 13 6 5 5 4 6 8 8 7 8 7 9 9 8 7 7 8 9 9 13 17 19 20 20 21 21 22 22 22 22 23 23 24 24 23 23 22 22 22 21 21 21 21 21 21 21 21 21 22 22 22 22
5 6 6 7 6 5 6 6 5 5 5 5 6 7 6 6 7 6 5 7 7 8 13 13 8 3 6 7 6 6 7 9 9 7 8 8 8 8 8 8 9 11 16 19 20 21 21 21 21 22 22 23 23 23 23 23 23 23 22 22 22 21 21 21 21 21 21 21 21 21 22 22 22 22
5 5 7 7 5 5 6 5 6 5 7 7 6 7 6 6 7 5 5 6 6 7 10 12 9 6 6 7 8 8 9 9 8 8 9 8 8 9 8 8 8 13 16 18 20 20 21 22 21 22 22 23 23 23 23 23 23 23 23 22 22 22 21 21 21 21 21 21 21 21 22 22 22 22
5 6 7 6 5 5 6 6 6 5 8 6 6 8 7 7 6 6 6 6 6 7 10 9 11 7 7 7 8 9 7 9 12 11 9 8 8 8 9 7 7 8 8 8 10 14 17 19 21 21 21 22 24 24 23 23 23 23 23 23 22 22 22 22 22 22 22 22 22 22 22 22 22 22
5 6 6 6 5 6 6 7 7 6 6 6 8 7 7 7 5 6 6 6 8 10 11 11 12 13 10 8 12 9 6 8 10 13 13 10 7 8 8 10 8 8 10 12 17 17 18 21 20 20 22 23 24 25 25 24 24 23 23 23 22 22 22 22 22 22 22 23 22 22 22 22 22 22
5 6 6 7 6 7 7 7 7 6 7 5 6 6 5 6 5 6 6 8 8 9 9 10 11 10 11 11 11 10 8 11 9 6 7 10 11 11 9 7 10 10 10 11 10 11 15 17 18 20 21 22 23 24 25 26 26 26 24 23 23 22 22 22 22 23 22 23 22 22 22 22 22 22
6 6 6 6 6 7 9 11 9 8 7 5 6 6 5 6 6 9 8 8 8 8 9 10 10 10 11 11 11 11 12 11 9 7 8 11 10 11 12 10 7 9 11 10 12 10 9 12 12 11 12 12 17 19 22 20 24 25 24 24 24 23 22 22 23 22 22 22 22 22 22 22 22 22
5 6 5 6 10 10 10 10 11 12 12 11 8 7 5 6 6 6 8 8 8 8 9 10 10 10 11 12 11 11 11 9 8 9 9 11 11 11 12 11 7 7 10 12 12 10 8 11 14 13 14 13 13 12 13 12 13 17 22 24 24 24 23 23 23 23 22 22 22 22 22 22 22 22
6 5 5 5 6 6 7 7 10 11 11 11 12 14 14 11 8 7 10 9 9 8 10 9 9 10 12 14 10 9 10 8 9 8 8 10 10 13 16 19 11 4 8 12 14 15 10 11 15 15 15 15 15 14 15 19 19 21 21 22 24 24 23 22 23 23 23 23 23 23 23 22 22 22
5 5 4 4 3 4 5 5 6 7 9 9 10 11 12 12 14 13 12 11 9 10 9 10 9 10 12 13 11 12 10 10 8 8 8 9 10 15 17 17 18 11 9 12 14 17 12 11 14 15 14 14 14 15 17 20 21 21 23 22 22 22 22 23 23 23 24 24 24 24 23 23 22 22
5 4 4 5 5 4 7 6 5 5 6 8 9 10 10 10 11 12 13 14 13 11 10 5 8 10 12 12 13 13 14 11 13 11 11 9 11 15 17 17 15 13 10 13 18 19 14 8 16 16 14 13 13 14 17 21 24 22 21 22 22 22 22 23 23 23 24 24 24 24 23 23 22 22
5 5 5 5 6 5 4 4 4 4 5 5 6 5 4 6 6 8 11 11 13 11 8 8 12 12 10 12 14 16 15 14 15 15 13 11 15 17 18 17 17 18 9 13 16 18 16 10 14 18 16 14 14 14 18 21 20 20 22 23 22 22 22 23 23 24 24 25 24 24 24 23 23 22
5 4 4 5 5 5 5 4 3 6 7 8 8 8 8 8 7 6 5 5 4 6 6 7 10 11 11 12 12 11 12 14 15 13 14 14 18 19 21 20 17 15 9 15 12 18 13 7 12 17 15 13 14 13 16 20 23 22 20 22 22 22 23 23 23 23 24 24 24 25 24 23 23 22
5 4 4 5 6 5 5 5 6 5 5 5 6 7 7 7 7 6 3 4 6 7 8 8 9 9 12 13 12 13 12 13 13 14 14 14 15 17 16 16 14 14 11 12 13 15 17 11 12 14 13 12 14 13 13 17 21 24 24 22 22 22 22 23 23 23 24 24 24 24 24 23 22 22
3 3 4 4 3 3 5 4 5 4 3 3 3 5 6 6 7 8 7 6 7 8 9 11 12 14 16 17 18 18 20 16 15 11 13 14 14 13 15 14 15 18 14 11 12 15 17 15 13 12 12 13 14 14 13 13 16 19 22 23 23 22 22 23 23 23 24 24 24 24 24 23 22 23
3 3 5 4 3 3 4 3 4 5 4 2 3 4 6 8 8 8 7 7 5 6 10 13 15 16 16 16 16 18 18 17 13 9 13 13 11 13 13 16 18 19 15 14 13 14 14 14 9 10 10 10 10 12 12 12 14 17 16 20 21 22 22 22 23 23 24 24 24 24 23 22 22 15
2 2 1 1 1 3 1 2 3 3 2 2 3 3 5 8 9 8 7 8 10 9 9 9 10 11 10 9 10 11 14 15 14 11 11 10 10 13 14 15 18 19 15 7 8 13 15 12 12 9 7 9 9 9 11 12 13 13 12 11 13 20 22 23 23 23 23 23 24 24 24 23 19 10
2 1 1 1 3 3 1 3 3 2 2 0 1 2 4 7 10 6 8 8 8 10 11 11 11 11 11 11 11 11 12 11 12 11 9 9 9 11 14 14 14 16 17 16 14 14 15 12 13 8 11 9 8 6 10 11 13 13 12 11 9 14 19 20 18 23 22 22 23 23 23 21 19 12
2 2 1 1 3 3 3 4 2 1 1 2 1 2 4 5 7 9 8 9 10 8 8 8 10 10 10 10 10 10 10 10 10 10 11 10 10 11 14 16 16 18 17 18 21 14 12 10 10 8 8 9 9 9 7 8 8 9 10 10 12 8 8 9 9 10 16 20 21 22 20 19 22 17
3 3 1 1 2 1 2 3 3 1 1 2 3 3 5 8 8 7 8 7 6 6 7 8 9 9 9 10 10 10 10 10 11 11 11 12 12 11 12 14 18 19 19 21 28 16 10 9 8 7 7 7 9 9 10 7 5 8 9 9 10 7 8 8 10 9 8 9 10 13 16 21 22 23
3 2 1 1 3 2 3 3 2 2 1 2 2 5 7 7 9 8 6 6 6 6 7 7 8 8 9 10 11 11 12 11 11 12 11 11 12 12 13 14 14 17 18 19 19 14 9 8 8 9 9 9 9 9 10 8 5 5 7 7 8 8 7 8 9 11 13 11 12 16 17 18 22 23
2 2 1 1 1 3 6 4 1 1 2 2 4 6 6 7 6 5 6 6 7 7 7 7 8 9 9 10 11 11 12 13 12 12 12 12 13 13 13 15 16 16 18 16 13 13 10 9 10 10 9 9 10 10 8 7 6 5 7 6 7 8 7 9 10 9 10 10 9 9 10 10 11 13
2 1 2 4 4 5 5 3 2 2 2 2 4 5 6 5 3 4 5 6 7 6 7 7 7 9 10 10 11 12 12 12 12 10 10 11 12 12 12 14 15 16 14 12 12 10 10 8 8 7 7 7 8 7 9 7 6 8 7 6 5 6 7 8 8 10 9 10 10 11 13 13 13 12
2 4 3 3 6 7 5 2 1 0 1 2 4 4 5 3 3 4 5 6 6 7 7 8 8 9 11 11 12 12 11 10 10 10 11 12 13 13 13 14 15 14 13 12 11 10 10 9 9 6 6 7 7 8 7 7 6 5 6 8 7 5 6 8 9 7 7 11 10 12 12 13 14 14
0 3 5 4 5 6 6 5 3 2 1 1 2 3 3 3 4 4 4 5 6 6 7 8 8 9 10 11 10 10 11 11 10 8 10 10 11 12 12 13 14 14 15 14 10 9 9 8 7 6 6 5 6 7 8 6 5 6 6 7 7 7 6 8 6 4 3 3 8 8 5 5 5 9
2 4 5 4 4 4 3 2 2 2 1 2 2 3 3 3 4 5 6 5 4 4 6 8 8 9 9 10 9 9 10 9 9 9 10 9 11 11 12 11 13 14 15 16 15 13 12 8 8 6 6 6 6 7 6 6 5 5 6 6 8 7 6 8 8 8 9 10 7 8 9 10 11 11
3 5 6 5 3 2 1 1 1 1 1 1 2 3 3 3 3 3 3 4 5 5 7 8 8 9 9 10 9 11 11 9 10 9 11 10 10 11 10 10 12 14 15 16 15 15 13 12 10 7 1 4 2 2 4 6 5 5 6 5 7 8 6 7 8 9 10 7 8 11 11 8 8 9
5 4 3 2 2 2 1 1 0 1 1 2 2 2 2 3 3 4 4 4 5 6 7 8 8 9 9 9 9 9 9 10 10 9 9 11 10 9 9 11 13 13 12 13 14 14 13 12 11 4 5 7 8 7 4 4 7 5 5 5 5 5 4 6 5 6 7 9 8 6 5 6 6 7
3 3 3 2 2 2 2 1 0 1 2 2 2 2 2 2 3 4 4 4 5 6 7 7 6 7 8 9 9 9 9 10 11 10 9 8 9 9 9 8 12 13 13 14 14 14 13 12 10 6 3 1 4 6 14 12 6 5 2 3 3 5 5 5 7 8 7 4 7 8 6 6 6 8
3 2 3 3 2 2 2 1 0 1 1 2 2 3 3 4 3 4 4 6 6 6 6 6 6 7 7 7 8 9 9 10 9 9 10 10 11 11 11 10 10 12 13 12 13 13 12 11 9 7 4 3 1 3 5 14 14 7 4 3 1 2 3 3 4 5 6 5 6 6 6 7 7 7
3 3 3 3 3 2 1 1 0 0 1 1 2 2 3 4 4 4 5 6 5 5 5 6 6 6 7 7 8 8 8 8 10 10 10 9 9 9 11 10 11 11 12 13 12 12 12 12 11 8 6 3 3 3 2 2 7 13 5 3 4 3 2 3 3 4 4 5 6 7 6 6 6 7
3 3 3 3 2 1 1 0 0 0 1 1 2 2 2 3 3 4 5 4 4 4 5 5 6 6 6 7 7 8 8 8 8 8 8 8 9 10 10 10 11 10 10 11 11 11 11 11 11 11 9 9 6 5 4 3 2 12 17 7 4 4 4 2 5 5 4 4 5 6 6 7 7 7
3 3 3 2 1 1 1 0 0 0 1 1 2 2 3 3 3 3 4 4 4 4 5 5 5 6 6 7 7 7 8 9 9 9 9 9 8 9 10 10 10 11 11 10 10 10 12 12 13 12 10 7 7 5 4 7 12 7 13 19 8 4 5 4 1 4 3 4 2 3 1 2 4 5
3 2 2 2 1 1 1 1 1 1 1 1 2 2 2 3 3 3 3 4 4 5 4 4 6 6 6 6 7 8 8 8 8 8 9 8 9 9 8 9 8 9 10 11 11 11 11 13 13 12 11 9 6 5 4 2 5 6 9 16 20 11 5 4 3 1 3 3 3 3 4 4 5 3
2 2 2 2 2 2 2 1 1 0 1 1 1 2 1 2 2 2 3 4 4 4 4 4 5 6 6 6 7 7 8 8 8 9 9 9 8 9 11 11 8 8 9 11 10 10 11 10 13 16 12 8 8 4 4 9 13 10 10 9 12 16 17 12 4 2 1 2 2 4 4 5 5 4
2 2 2 2 2 2 2 1 1 0 0 1 1 1 1 1 2 4 3 3 3 3 4 4 5 5 6 6 7 7 7 8 9 9 9 9 10 9 10 8 9 10 9 11 10 10 10 10 10 10 9 9 10 12 13 10 10 9 8 7 7 8 13 16 17 15 9 4 1 3 3 3 3 4
3 3 3 3 2 2 2 1 1 0 0 0 0 0 1 1 1 2 2 3 3 3 4 4 4 5 5 6 6 6 7 8 8 9 9 9 9 9 9 9 8 9 8 7 8 8 9 9 9 10 9 10 10 9 11 10 9 8 9 8 8 7 6 9 13 17 19 19 13 7 3 0 2 4
3 3 3 3 3 2 2 1 1 1 0 0 0 0 1 1 1 2 2 3 3 3 4 4 4 5 6 6 6 6 6 7 8 8 9 9 8 7 8 9 9 8 8 9 9 9 8 8 8 8 9 10 8 9 10 10 9 8 8 7 6 7 8 6 5 10 16 21 20 16 14 11 8 3
3 3 3 3 2 2 2 1 1 1 1 1 1 1 1 1 1 1 2 2 3 3 3 4 5 5 6 6 6 7 7 8 8 7 7 8 8 8 7 7 8 8 7 8 9 9 9 8 8 8 7 8 8 8 9 8 8 8 9 10 10 8 7 6 8 11 12 12 15 18 18 17 15 13
Wind_Direction
222 222 200 214 227 227 216 210 208 196 184 185 176 181 195 172 229 279 267 239 247 256 202 253 263 221 220 272 281 290 276 291 301 302 305 303 300 299 303 306 307 305 306 305 304 302 299 296 294 289 284 279 275 269 265 263 261 262 261 260 258 255 251 246 240 236 232 231 229 226 225 227 229 231
221 229 229 222 237 218 203 214 190 191 192 189 201 200 200 173 211 226 272 279 184 237 241 213 257 225 240 258 286 282 283 282 291 284 288 296 295 293 296 300 303 303 302 301 298 297 296 294 292 290 285 279 274 270 265 260 258 258 258 256 255 254 251 246 242 237 234 230 228 226 225 224 226 228
223 229 237 227 241 207 205 203 192 177 191 206 199 203 195 216 219 228 217 288 246 179 222 239 230 258 263 270 270 272 273 280 287 284 282 283 290 297 297 295 296 296 295 296 296 294 293 292 291 289 286 281 275 270 265 261 257 254 253 253 251 249 248 246 242 237 234 230 227 225 225 225 225 226
226 231 240 244 235 210 206 207 203 204 202 201 202 195 202 220 225 218 222 236 273 226 220 257 267 258 281 273 271 266 260 270 284 279 274 277 290 294 288 286 283 288 291 292 293 292 290 289 288 287 285 281 276 271 266 262 257 253 250 249 248 247 245 244 241 238 235 232 228 225 224 226 226 226
225 227 241 254 244 192 212 216 213 217 210 202 211 202 208 222 213 217 225 246 266 277 191 224 251 267 283 290 233 265 275 280 278 280 275 279 280 283 283 284 283 286 288 290 290 291 289 288 286 285 284 282 278 273 268 263 258 253 249 247 245 244 244 242 241 238 235 233 231 228 226 226 226 226
216 217 236 253 249 199 220 212 217 217 208 208 208 215 209 221 227 203 221 236 249 277 282 244 232 269 232 260 270 274 292 295 297 292 289 281 272 273 278 282 284 284 290 291 290 289 288 286 285 283 281 280 278 275 270 264 259 254 249 246 242 241 241 240 239 238 236 234 232 231 229 227 226 226
223 222 233 248 246 207 216 220 225 216 222 212 218 226 215 229 230 219 210 231 260 273 279 280 271 261 259 253 280 290 283 282 283 290 287 287 282 268 270 277 282 284 287 290 289 286 285 284 283 282 279 277 277 276 271 266 260 254 248 244 241 239 238 237 236 236 235 234 232 231 230 229 228 227
216 225 233 245 237 213 219 226 225 224 221 217 219 229 229 221 238 229 204 221 235 262 280 283 275 249 280 275 271 272 277 284 291 282 282 277 275 275 274 271 274 280 282 284 286 286 284 282 281 279 278 276 274 274 271 265 260 254 248 243 240 237 235 234 234 233 233 232 231 231 230 229 228 227
225 224 229 244 222 207 222 232 229 222 220 223 221 231 233 230 236 238 220 222 221 245 265 279 278 273 260 266 279 275 284 290 282 282 280 281 283 283 273 272 265 267 272 275 280 281 280 280 277 275 275 274 273 271 269 265 259 253 248 243 238 235 232 231 230 230 230 229 229 229 230 230 229 227
228 237 242 247 228 211 215 234 231 224 229 224 226 231 237 235 233 240 241 228 232 242 260 270 286 276 268 277 270 275 278 287 295 292 283 281 275 278 286 273 275 279 275 280 278 277 276 274 273 273 272 272 271 269 267 264 259 253 247 242 237 233 230 228 227 226 226 226 226 226 228 229 229 227
230 233 241 246 231 226 226 235 239 233 229 222 228 227 233 240 233 239 243 236 250 252 257 265 268 276 277 270 281 280 284 282 279 288 293 288 277 278 279 292 284 281 278 266 262 269 272 274 276 276 274 272 269 267 265 262 257 252 246 241 235 231 228 226 224 223 222 222 222 222 224 226 228 228
231 230 235 238 234 228 228 228 237 231 240 230 238 235 232 241 238 241 244 254 252 255 255 258 271 275 282 286 277 280 286 288 280 249 274 285 295 293 287 275 294 290 283 287 276 260 265 267 266 265 265 264 264 263 261 258 253 249 244 240 236 230 225 224 222 220 219 219 218 218 220 222 225 227
227 232 233 238 241 235 237 236 236 238 234 232 242 248 227 238 237 253 255 252 255 256 256 262 263 270 277 277 283 285 283 275 266 288 291 283 280 287 293 287 270 280 286 281 281 267 262 276 268 268 267 262 264 264 257 254 250 245 240 237 235 229 224 220 219 218 217 217 216 216 217 219 221 223
224 228 230 239 241 244 250 252 250 247 245 239 236 246 236 230 230 238 256 258 254 253 255 257 262 270 272 278 276 277 269 267 280 281 281 284 292 295 286 278 267 287 288 288 285 275 271 272 278 274 271 269 263 269 269 258 247 241 235 233 231 227 223 217 215 214 214 215 215 215 216 217 218 220
231 220 227 239 252 256 260 258 256 255 250 246 238 239 242 241 231 243 255 257 257 253 257 259 263 264 270 274 272 268 270 268 273 277 279 286 293 300 304 304 296 190 279 290 291 286 277 275 276 272 268 267 267 264 263 267 251 239 235 231 228 226 221 216 212 211 212 213 213 214 214 214 214 216
229 238 243 243 241 250 247 253 265 266 262 254 252 249 246 245 240 235 241 250 255 253 253 256 257 267 269 277 281 280 280 283 281 276 281 277 287 296 296 296 294 299 304 292 290 283 279 273 264 265 259 259 257 255 255 258 259 242 235 231 228 223 219 215 211 209 209 211 212 213 212 212 212 213
218 221 240 271 266 254 250 256 259 266 277 271 263 260 262 258 250 244 239 239 245 255 262 279 282 267 273 279 279 282 284 290 289 290 287 284 288 290 288 286 285 293 302 296 288 284 282 274 275 267 258 257 257 254 248 245 249 245 235 231 227 222 218 214 211 208 208 208 210 211 211 210 210 210
227 215 215 238 265 264 262 258 263 270 267 275 285 283 271 272 262 248 242 241 246 252 257 251 258 264 267 273 281 287 291 293 292 291 288 288 288 287 283 278 286 287 289 277 283 281 278 261 266 268 268 262 252 246 249 251 250 241 234 231 225 221 218 214 211 209 208 208 208 209 210 209 208 207
227 218 217 227 247 265 275 271 290 293 294 296 296 297 295 295 293 290 284 275 271 270 255 251 249 266 275 283 286 287 289 287 286 289 289 285 283 282 284 284 276 270 253 267 263 271 276 240 254 261 258 255 254 251 245 241 245 249 243 232 226 220 217 214 212 210 210 209 208 209 209 208 207 206
230 218 216 229 245 259 272 303 330 327 310 296 298 298 300 305 306 305 298 282 281 276 279 280 281 285 288 286 283 283 283 287 288 288 283 282 280 284 288 288 286 277 267 260 265 270 275 263 255 260 256 253 255 249 245 242 235 236 236 231 225 220 216 214 212 210 209 209 209 209 208 207 205 205
214 222 222 228 247 261 277 341 10 352 331 316 312 310 310 307 308 306 308 289 263 267 270 266 268 268 270 273 275 276 276 274 278 281 288 286 290 295 294 290 291 290 288 273 260 268 274 269 256 258 253 249 252 252 248 244 241 231 228 227 223 218 215 213 212 210 209 209 209 209 208 206 204 204
217 222 232 241 255 278 285 41 14 345 323 321 320 315 310 309 307 308 311 311 297 272 265 272 271 270 271 273 273 271 270 273 276 277 284 285 296 291 287 291 293 292 283 276 272 268 258 266 245 249 255 250 237 242 243 242 243 241 229 224 220 217 214 212 211 209 209 208 208 208 207 206 202 201
212 228 228 284 211 265 298 64 300 302 313 326 318 309 306 304 303 304 319 316 314 312 312 304 306 306 299 295 296 294 290 285 283 281 278 285 287 289 289 289 296 295 287 262 276 281 272 261 252 234 251 249 249 226 233 230 230 231 232 218 220 217 213 211 208 209 209 207 207 207 205 205 192 191
221 243 287 225 144 156 212 271 266 282 269 211 252 284 299 301 295 318 318 306 303 303 306 308 311 309 307 302 299 301 303 298 295 292 287 286 287 287 288 287 287 285 289 292 288 277 274 257 257 225 226 245 259 230 212 219 217 219 218 216 214 212 211 212 210 209 207 207 207 206 204 198 182 192
245 241 230 269 126 158 227 250 278 202 221 258 241 279 285 287 305 316 302 303 295 297 308 312 311 307 307 306 306 306 304 301 302 302 296 289 281 281 287 289 287 287 285 290 298 282 270 252 247 241 220 226 249 273 269 213 200 204 206 206 217 203 177 200 202 205 209 209 207 204 200 188 186 191
235 241 219 259 136 177 250 229 179 138 158 258 299 320 310 300 299 301 299 302 312 315 315 313 310 308 307 310 311 308 307 302 305 304 297 293 286 277 276 283 293 296 298 303 304 290 260 249 240 238 232 229 239 230 262 252 206 205 201 202 209 195 178 181 194 201 180 184 199 199 194 187 189 196
235 238 218 259 125 205 195 195 166 119 45 271 326 311 303 302 304 303 310 319 321 319 318 315 309 307 308 312 312 311 311 308 307 303 297 291 290 290 290 285 279 282 286 291 298 295 256 255 242 232 233 232 238 229 230 243 228 189 185 194 201 198 186 189 187 202 204 197 207 189 188 185 188 195
232 242 245 258 254 212 176 175 164 29 357 344 302 303 312 317 320 324 320 324 322 320 318 313 309 308 309 309 308 309 309 306 303 300 297 300 298 296 295 295 293 291 293 295 299 301 282 261 257 247 252 272 252 234 234 220 230 196 206 193 197 195 184 193 201 197 190 187 178 164 172 183 197 193
217 278 279 261 240 181 158 159 232 222 200 298 330 331 332 342 341 334 329 325 325 322 320 313 306 305 307 304 300 301 301 299 302 301 303 301 298 299 300 300 300 298 298 303 306 310 299 275 266 281 278 268 282 261 232 234 218 219 201 179 198 200 190 197 196 197 188 178 179 173 183 186 181 181
318 271 243 176 146 140 152 159 110 55 358 340 336 340 353 356 342 336 334 330 328 322 317 314 308 303 307 307 307 305 302 305 310 315 313 315 313 318 318 317 310 304 303 309 310 314 313 306 287 253 254 262 269 292 277 236 235 225 193 201 206 158 197 196 202 194 169 182 180 183 191 186 181 171
146 165 160 140 131 123 110 99 86 58 5 355 344 348 355 350 346 332 333 326 321 317 314 309 306 305 304 306 310 314 318 315 311 313 312 312 307 315 318 313 307 315 319 322 316 313 321 314 303 247 240 259 272 265 285 293 275 247 224 209 195 206 180 174 159 139 176 194 182 176 159 146 167 190
207 162 134 129 143 131 116 110 83 40 21 5 351 348 353 354 345 334 326 321 304 295 303 305 305 306 312 316 313 315 313 308 309 318 318 316 312 317 321 317 320 320 323 327 330 332 337 323 308 285 226 219 241 258 244 247 259 267 250 212 212 212 154 168 181 193 169 161 162 175 177 175 179 184
179 160 162 160 137 129 121 111 74 34 2 5 352 349 350 352 337 322 335 331 328 319 323 320 319 316 320 317 317 321 318 314 318 320 321 318 322 320 325 321 317 324 327 328 329 331 335 333 327 322 257 73 52 318 266 257 245 233 247 222 200 199 174 175 190 170 158 156 177 173 172 179 180 182
163 164 149 137 133 121 128 123 101 14 349 337 340 347 343 343 340 340 333 328 323 321 322 319 319 321 323 323 321 320 317 316 318 321 321 318 324 320 324 324 321 320 323 322 327 332 331 330 330 342 73 92 75 52 18 290 272 227 207 205 181 182 156 162 158 145 160 158 161 154 156 159 177 185
170 156 149 129 124 120 134 132 143 2 341 342 330 334 342 349 344 340 330 333 326 321 322 316 313 316 326 326 322 319 317 317 316 317 319 316 320 326 323 321 322 326 329 328 333 334 332 331 329 318 251 201 84 70 54 40 360 356 197 181 187 166 156 156 145 150 170 175 156 154 155 161 176 189
141 138 135 138 131 132 125 113 52 6 340 334 330 335 342 350 355 342 331 329 319 317 318 319 319 321 323 321 318 316 315 317 315 319 325 331 333 330 327 324 323 326 328 326 329 334 335 336 332 322 317 274 263 33 18 44 36 23 345 127 34 118 101 142 156 147 157 166 172 158 156 173 186 181
138 133 131 132 136 139 129 105 135 31 339 331 337 344 341 336 340 330 319 313 307 311 318 317 314 320 321 321 317 314 318 323 323 323 326 325 323 323 331 329 330 328 329 327 328 334 344 349 349 353 350 353 46 50 33 90 62 50 12 354 21 29 134 147 142 157 172 177 168 181 180 173 181 176
136 140 136 138 144 143 135 112 315 61 352 357 338 327 333 329 327 319 316 315 321 319 321 320 319 324 324 325 323 323 324 320 316 319 323 326 329 335 336 325 323 328 329 321 327 335 348 355 3 7 17 26 19 360 358 334 317 22 25 10 0 348 346 134 154 185 176 198 184 183 177 191 194 183
137 145 147 142 139 152 154 138 110 73 27 345 333 329 330 333 333 330 328 324 323 320 319 319 328 330 327 326 325 323 321 325 329 331 330 330 329 327 326 329 327 329 329 330 331 340 353 0 6 7 9 18 28 356 352 55 48 37 30 34 17 351 8 355 109 143 178 173 171 135 94 46 52 125
139 140 143 150 139 135 132 131 120 73 34 345 330 324 339 339 338 330 325 327 324 321 317 325 331 329 328 331 325 323 319 323 325 323 324 323 323 321 321 329 322 323 321 332 338 341 353 355 2 4 357 354 333 293 307 56 100 56 41 34 30 30 356 319 351 45 167 168 151 177 173 150 161 149
154 161 169 153 136 135 134 124 94 101 26 355 338 336 6 346 331 337 332 330 321 316 325 327 329 328 329 329 329 328 326 325 330 330 329 324 326 328 327 329 334 341 334 331 332 335 343 333 340 346 353 347 342 301 31 40 38 24 29 29 30 33 35 37 32 19 1 340 218 182 165 165 162 155
150 141 136 141 137 130 127 131 144 135 41 21 348 343 351 351 357 332 315 317 312 317 322 327 331 326 329 330 329 330 327 328 329 331 332 334 333 334 337 343 342 340 338 333 326 323 316 324 339 355 357 2 8 31 39 35 37 28 25 17 17 27 39 45 51 56 54 15 282 186 146 163 150 178
139 141 141 135 126 130 139 129 156 73 82 95 14 343 350 1 339 336 337 334 329 329 328 328 327 325 326 326 330 328 327 330 333 331 332 337 340 339 336 330 334 332 330 314 315 320 330 337 349 357 6 18 14 29 33 28 25 28 26 22 18 5 17 39 53 60 59 54 53 53 15 38 170 185
147 145 140 142 137 134 139 147 147 155 151 165 159 126 24 357 343 343 328 326 325 328 322 324 326 330 328 328 326 329 337 336 332 331 333 334 333 334 331 325 329 335 332 341 340 340 337 346 355 354 17 18 5 22 27 22 24 23 25 20 11 18 21 7 11 54 58 50 40 42 49 55 59 63
156 150 144 147 144 145 154 160 167 146 162 179 176 116 61 4 331 323 316 315 317 321 320 324 325 328 329 330 336 340 337 335 331 326 329 335 339 337 327 323 334 338 345 348 347 352 348 343 355 5 16 17 11 16 23 28 19 16 21 19 13 10 14 6 24 41 51 55 33 39 50 58 63 63